User: anonymous   Login
Location: Unspecified
(0.0000°N, 0.0000°E)
Time: 19:07:47
(UTC+00:00)
Language:

STARLINK-32131 - Orbit

View from above orbital plane
View from above orbital plane
View from above satellite
View from above satellite

Ground track
Ground track

The orbit is defined by the following mean orbital elements,

1 60153U          26144.89070527 +.00000000 +00000-0 +46850-4 0 00000
2 60153  53.1620 325.9228 0001151  74.5061 285.6068 15.34389616    07
Epoch (UTC): 24 May 2026 21:22:36
Eccentricity: 0.0001151
inclination: 53.1620°
perigee height: 462 km
apogee height: 464 km
right ascension of ascending node: 325.9228°
argument of perigee: 74.5061°
revolutions per day: 15.34389616
mean anomaly at epoch: 285.6068°

The dashed part of the orbit path shows where the satellite is in the earth's shadow,  

DLR